SCP
0 0 0 0 0 0 1 1 1 0 0 0 0 0 0 0 0 0 0 0 0 0 0 0 0 0 0 0 0 0 0 0 0 0 0 0 0 0
0 0 0 0 0 0 1 1 1 0 0 0 0 0 0 0 0 0 0 0 0 0 0 0 0 0 0 0 0 0 0 0 0 0 0 0 0 0
0 0 0 0 0 0 1 1 0 0 0 0 0 0 0 0 0 0 0 0 0 0 0 0 0 0 0 0 0 0 0 0 0 0 0 0 0 0
0 0 0 0 0 0 0 0 0 0 0 0 0 0 0 0 0 0 0 0 0 0 0 0 0 0 0 0 0 0 0 0 0 0 0 0 0 0
0 0 0 0 0 0 0 0 0 0 0 0 0 0 0 0 0 0 0 0 0 0 0 0 0 0 0 0 0 0 0 0 0 0 0 0 0 0
0 0 0 0 0 0 0 0 0 0 0 0 0 0 0 0 0 0 0 0 0 0 0 0 0 0 0 0 0 0 0 0 0 0 0 0 0 0
0 0 0 0 0 0 0 0 0 0 0 0 0 0 0 0 0 0 0 0 0 0 0 0 0 0 0 0 0 0 0 0 0 0 0 0 0 0
0 0 0 0 0 0 0 0 0 0 0 0 0 0 0 0 0 0 0 0 0 0 0 0 0 0 0 0 0 0 0 0 0 0 0 0 0 0
0 0 0 0 0 0 0 0 0 0 0 0 0 0 0 0 0 0 0 0 0 0 0 0 0 0 0 0 0 0 0 0 0 0 0 0 0 0
0 0 0 0 0 0 0 0 0 0 0 0 0 0 0 0 0 0 0 0 0 0 0 0 0 0 0 0 0 0 0 0 0 0 0 0 0 0
1 0 0 0 0 0 0 0 0 0 0 0 0 0 0 0 0 0 0 0 0 0 0 0 0 0 0 0 0 0 0 0 0 0 0 0 0 0
1 1 0 0 0 0 0 0 0 0 0 0 0 0 0 0 0 0 0 0 0 0 0 0 0 0 0 0 0 0 0 0 0 0 0 0 0 0
1 1 0 0 0 0 0 0 0 0 0 0 0 0 0 0 0 0 0 0 0 0 0 0 0 0 0 0 0 0 0 0 0 0 0 0 0 0
1 1 0 0 0 0 0 0 0 0 0 0 0 0 0 0 0 0 0 0 0 0 0 0 0 0 0 0 0 0 0 0 0 0 0 0 0 0
1 1 0 0 0 0 0 0 0 0 0 0 0 0 0 0 0 0 0 0 0 0 0 0 0 0 0 0 0 0 0 0 0 0 0 0 0 0
0 0 0 0 0 0 0 0 0 0 0 0 0 0 0 0 0 0 0 0 0 0 0 0 0 0 0 0 0 0 0 0 0 0 0 0 0 0
0 0 0 0 0 0 0 0 0 0 0 0 0 0 0 0 0 0 0 0 0 0 0 0 0 0 0 0 0 0 0 0 0 0 0 0 0 0
0 0 0 0 0 0 0 0 0 0 0 0 0 0 0 0 0 0 0 0 0 0 0 0 0 0 0 0 0 0 0 0 0 0 0 0 0 0
0 0 0 0 0 0 0 0 0 0 0 0 0 0 0 0 0 0 0 0 0 0 0 0 0 0 0 0 0 0 0 0 0 0 0 0 0 0
0 0 0 0 0 0 0 0 0 0 0 0 0 0 0 0 0 0 0 0 0 0 0 0 0 0 0 0 0 0 0 0 0 0 0 0 0 0
0 0 0 0 0 0 0 0 0 0 0 0 0 0 0 0 0 0 0 0 0 0 0 0 0 0 0 0 0 0 0 0 0 0 0 0 0 0
0 0 0 0 0 0 0 0 0 0 0 0 0 0 0 0 0 0 0 0 0 0 0 0 0 0 0 0 0 0 0 0 0 0 0 0 0 0
0 0 0 0 0 0 0 0 0 0 0 0 0 0 0 0 0 0 0 0 0 0 0 0 0 0 0 0 0 0 0 0 0 0 0 0 0 0
Wind_Speed
5 5 5 3 4 4 4 4 4 4 3 2 2 1 1 1 2 1 2 6 5 3 2 2 2 2 2 2 2 2 2 2 1 2 2 2 2 3
4 4 4 4 3 3 4 4 4 4 3 1 1 1 0 1 3 1 3 7 5 4 3 3 3 3 2 2 2 3 3 3 3 3 2 2 2 2
4 4 4 3 3 3 3 3 3 3 3 1 0 1 1 1 2 1 2 2 4 5 4 4 3 3 3 3 3 3 3 3 3 3 2 3 2 3
4 4 4 3 3 3 2 3 2 2 3 2 0 1 1 1 2 1 1 1 2 7 5 4 4 4 4 4 4 3 3 3 3 3 3 3 3 3
3 4 3 3 3 2 3 2 2 2 2 2 1 1 1 2 2 1 1 1 1 5 5 5 5 4 4 4 4 3 3 3 3 3 3 3 2 3
3 3 3 3 3 3 3 3 3 3 3 3 2 2 2 2 2 2 2 2 1 2 2 3 5 5 5 4 4 4 4 3 3 3 3 3 3 3
4 4 3 1 2 3 3 2 3 3 3 3 2 2 2 3 3 2 2 2 2 2 2 2 3 3 4 5 5 4 4 4 4 4 3 3 3 3
4 4 3 4 3 3 1 2 2 3 3 3 3 3 3 3 2 3 3 3 2 2 2 2 1 1 2 2 6 5 4 4 4 4 3 3 3 3
4 4 4 3 4 3 4 5 3 1 1 3 3 2 2 2 3 4 3 2 1 1 1 1 2 2 1 4 8 7 5 4 4 4 3 3 3 3
5 5 4 3 3 2 3 4 3 3 2 3 1 1 1 1 3 3 2 3 2 2 2 2 2 3 2 4 9 8 7 6 5 5 4 3 3 4
5 5 5 4 3 2 4 3 3 3 4 3 4 3 4 2 1 2 3 4 3 3 3 3 2 2 3 4 7 10 8 7 6 6 5 4 3 4
5 5 4 3 5 4 5 3 3 2 3 4 4 4 4 5 4 3 3 4 3 2 3 3 3 3 3 3 4 6 7 9 9 8 7 6 5 5
3 4 4 7 6 5 4 2 1 1 3 3 3 3 3 3 4 3 3 3 3 2 2 3 3 3 4 3 3 4 4 5 6 7 8 8 7 6
3 2 4 8 7 6 3 2 3 3 3 3 3 3 3 2 2 3 3 3 3 3 2 3 3 3 4 4 3 4 4 4 5 5 5 9 9 10
1 3 5 7 7 5 5 5 5 4 3 3 3 2 2 1 2 3 4 4 4 4 4 5 5 4 5 5 4 3 4 4 5 5 5 5 6 6
3 5 7 6 4 3 5 5 4 3 3 3 2 2 2 2 2 2 3 3 4 4 5 6 6 6 6 6 5 4 4 4 4 5 5 5 6 6
3 3 3 4 4 4 3 3 3 3 3 2 2 2 2 3 3 3 3 4 4 3 3 4 5 5 6 6 5 5 4 5 4 4 5 6 6 7
4 3 3 3 3 3 3 3 2 2 2 2 2 2 2 2 2 3 3 4 4 3 3 2 3 4 5 5 6 6 5 5 4 5 6 7 7 6
4 3 3 3 3 2 2 2 2 2 2 2 2 2 2 2 2 2 3 3 3 3 3 2 3 3 5 5 5 7 6 5 4 5 6 6 7 6
2 1 1 1 1 2 1 1 1 1 1 1 2 2 2 2 2 2 2 3 3 3 3 3 3 3 5 6 5 5 9 7 6 6 6 6 6 4
1 1 1 0 0 1 1 1 1 1 0 1 1 2 2 2 2 2 2 2 5 4 4 4 2 4 6 6 6 6 5 8 7 6 6 6 6 5
1 1 1 1 0 0 0 0 0 0 1 1 1 2 2 2 2 3 3 3 4 4 5 4 3 4 5 6 7 6 5 4 7 9 9 8 6 6
2 1 1 1 1 1 1 0 0 1 1 1 1 2 2 2 2 3 3 4 4 5 5 5 4 4 5 6 7 6 7 6 5 6 7 10 12 11
Wind_Direction
253 242 250 255 256 259 250 246 262 265 249 208 214 175 213 111 104 166 118 113 117 110 101 101 120 127 135 138 129 123 116 110 132 155 171 184 190 199
262 269 266 265 263 259 258 247 249 266 269 259 206 159 130 186 129 158 122 129 117 119 114 104 98 100 104 107 106 103 105 107 115 128 132 143 155 169
261 255 256 267 268 261 256 252 246 246 251 260 94 113 159 210 133 143 159 173 128 120 116 110 103 100 103 102 102 103 105 107 111 115 116 132 140 146
254 257 258 246 241 260 263 257 255 251 247 241 216 149 178 164 140 172 162 128 102 108 114 111 105 99 94 99 106 109 108 109 104 100 101 109 127 135
247 250 257 256 250 248 252 253 248 235 223 218 206 150 170 157 161 179 159 136 138 126 134 132 122 113 103 106 113 116 115 115 114 110 104 102 113 127
234 243 249 249 254 258 247 243 246 239 216 218 199 185 172 160 187 196 188 180 188 159 130 132 142 148 139 129 125 121 120 122 117 111 106 106 111 117
218 225 226 228 313 289 289 263 236 238 226 219 205 198 190 178 198 196 205 188 185 206 185 173 168 172 162 158 145 132 128 125 120 115 111 108 112 114
222 225 207 194 197 210 268 316 304 256 253 239 224 215 208 204 198 207 200 204 201 180 220 195 186 184 175 153 127 136 138 135 133 127 122 119 125 125
223 220 225 182 196 204 181 189 190 161 287 272 261 248 211 197 204 208 200 221 248 146 213 224 198 207 192 118 134 146 153 155 154 151 146 144 150 148
221 218 220 199 200 217 206 190 187 171 189 226 250 242 227 170 203 218 187 188 198 180 204 239 210 214 193 152 149 161 167 169 168 166 162 161 166 169
215 211 212 201 151 192 222 202 187 164 124 87 55 65 77 102 186 196 186 207 213 188 192 235 226 224 211 193 163 173 178 180 182 180 175 173 180 197
204 199 196 207 152 183 216 210 207 191 160 148 150 158 162 158 185 225 222 232 234 206 170 224 223 220 228 197 187 180 189 187 191 191 187 187 193 217
209 203 170 156 161 180 222 230 187 206 190 183 174 173 169 167 182 201 234 255 258 248 164 208 236 231 241 225 205 199 202 195 194 196 196 193 199 223
223 206 142 146 160 173 197 153 151 215 213 200 193 187 185 179 178 192 208 242 264 264 210 217 241 245 248 242 224 201 207 209 206 206 202 188 201 213
211 99 121 148 160 173 180 175 196 216 219 214 214 202 189 172 180 190 199 217 230 229 211 218 237 240 249 253 244 217 214 216 215 213 210 205 204 208
186 137 147 162 179 155 160 181 212 223 231 224 220 208 172 177 202 214 217 214 226 214 204 214 232 245 247 251 253 241 225 223 219 221 224 222 218 217
169 168 171 170 177 178 180 189 202 202 216 228 221 212 209 206 204 213 232 230 234 235 216 205 218 233 248 257 251 245 237 232 227 216 227 235 228 223
181 184 187 194 194 188 184 185 190 201 217 226 228 227 227 229 227 225 233 244 249 250 243 228 222 226 231 230 236 251 247 242 234 221 233 241 239 228
191 189 189 193 195 196 197 199 197 193 218 229 235 240 244 245 248 245 249 252 255 259 256 246 244 254 263 261 220 219 252 257 246 233 233 242 251 245
191 172 182 191 191 195 194 197 206 192 199 239 256 264 266 260 256 256 257 273 271 266 262 258 255 262 271 278 276 244 220 244 254 253 249 249 256 251
108 101 105 145 164 179 189 210 218 194 218 253 248 253 252 255 259 263 262 254 265 265 266 263 265 257 265 267 265 261 239 220 245 262 264 261 258 250
104 107 90 71 85 137 171 174 180 187 233 249 255 260 262 260 257 260 263 259 260 268 274 276 261 253 258 264 271 275 274 253 229 235 247 254 266 267
95 87 80 71 60 45 26 4 240 241 254 267 263 267 274 271 267 263 263 264 268 273 275 272 269 263 263 267 275 279 278 270 260 243 239 225 230 245